User: anonymous   Login
Location: Unspecified
(0.0000°N, 0.0000°E)
Time: 06:57:50
(UTC+00:00)
Language:

UOSAT-12 - Orbit

View from above orbital plane
View from above orbital plane
View from above satellite
View from above satellite

Ground track
Ground track

The orbit data is extracted from the following two-line orbital elements,

1 25693U 99021A   17202.90231663 -.00000083 +00000-0 +83818-5 0  9993
2 25693 064.5562 018.6897 0037682 306.6648 053.0995 14.80743047985037
Epoch (UTC): 21 July 2017 21:39:20
Eccentricity: 0.0037682
inclination: 64.5562°
perigee height: 600 km
apogee height: 653 km
right ascension of ascending node: 18.6897°
argument of perigee: 306.6648°
revolutions per day: 14.80743047
mean anomaly at epoch: 53.0995°
orbit number at epoch: 98503

The dashed part of the orbit path shows where the satellite is in the earth's shadow,  

DLR